Location: Unspecified
(0.0000°N, 0.0000°E)
Time: 03:05:22
(UTC+00:00)

Radcal - Visible Passes

Search period start: 16 July 2018 00:00
Search period end: 26 July 2018 00:00
Orbit: 751 x 876 km, 89.6° (Epoch: 15 July)

Date Brightness Start Highest point End Pass type
(mag) Time Alt. Az. Time Alt. Az. Time Alt. Az.
16 Jul 8.2 18:30:40 10° S 18:35:54 88° W 18:41:18 10° N visible
17 Jul 10.9 05:30:58 10° NE 05:34:37 18° E 05:38:11 10° SE visible
18 Jul 11.5 05:11:37 10° E 05:11:56 10° E 05:12:15 10° E visible
18 Jul 10.9 19:28:37 10° SW 19:31:25 14° W 19:34:15 10° WNW visible
19 Jul 10.4 19:04:29 10° SSW 19:08:43 25° W 19:13:04 10° NW visible
20 Jul 9.6 18:41:06 10° SSW 18:46:03 41° W 18:51:09 10° NNW visible
21 Jul 9.9 05:39:48 10° NNE 05:44:47 37° E 05:49:37 10° SSE visible
22 Jul 10.7 05:17:59 10° NE 05:22:06 22° E 05:26:07 10° SE visible
23 Jul 11.1 04:57:05 10° ENE 04:59:24 13° E 05:01:42 10° ESE visible
23 Jul 11.2 19:17:08 10° WSW 19:18:53 12° W 19:20:39 10° WNW visible
24 Jul 10.8 18:52:21 10° SW 18:56:12 20° W 19:00:08 10° NW visible
25 Jul 10.1 18:28:44 10° SSW 18:33:31 33° W 18:38:28 10° NNW visible
